• In United Kingdom
  • List of Countries
  • For 7 days
  • Water Temperature
  • Satellite Maps
  • Weather Map
  • Weather Widgets
  • user-avatar
    Login

    Hourly Weather York

    Today, 19 September, Wednesday

    Time Temperature Precipitation Wind Pressure Humidity
    00:00 +16°C° 0 mm 6 mps 753 mmHg 81%
    01:00 +15°C° 0 mm 6 mps 753 mmHg 82%
    02:00 +15°C° 0 mm 6 mps 753 mmHg 83%
    03:00 +14°C° 0 mm 6 mps 753 mmHg 84%
    04:00 +14°C° 0 mm 6 mps 753 mmHg 86%
    05:00 +14°C° 0 mm 6 mps 753 mmHg 87%
    06:00 +14°C° 0 mm 5 mps 752 mmHg 91%
    07:00 +15°C° 0 mm 7 mps 752 mmHg 85%
    08:00 +16°C° 0 mm 9 mps 751 mmHg 79%
    09:00 +17°C° 0 mm 11 mps 751 mmHg 74%
    10:00 +18°C° 0.1 mm 11 mps 750 mmHg 72%
    11:00 +18°C° 0.1 mm 12 mps 750 mmHg 70%
    12:00 +19°C° 0.1 mm 13 mps 749 mmHg 67%
    13:00 +18°C° 0.1 mm 13 mps 750 mmHg 66%
    14:00 +17°C° 0.1 mm 12 mps 750 mmHg 64%
    15:00 +15°C° 0.1 mm 12 mps 751 mmHg 62%
    16:00 +14°C° 0 mm 11 mps 752 mmHg 61%
    17:00 +13°C° 0 mm 9 mps 753 mmHg 61%
    18:00 +12°C° 0 mm 7 mps 753 mmHg 60%
    19:00 +12°C° 0 mm 7 mps 754 mmHg 60%
    20:00 +12°C° 0 mm 7 mps 755 mmHg 61%
    21:00 +11°C° 0 mm 6 mps 755 mmHg 61%
    22:00 +11°C° 0 mm 6 mps 756 mmHg 63%
    23:00 +10°C° 0 mm 6 mps 756 mmHg 65%

    Tomorrow, 20 September, Thursday

    Time Temperature Precipitation Wind Pressure Humidity
    00:00 +10°C° 0 mm 6 mps 756 mmHg 67%
    01:00 +10°C° 0.1 mm 6 mps 756 mmHg 71%
    02:00 +10°C° 0.1 mm 5 mps 756 mmHg 74%
    03:00 +10°C° 0.1 mm 5 mps 756 mmHg 77%
    04:00 +9°C° 0.1 mm 5 mps 756 mmHg 78%
    05:00 +10°C° 0.1 mm 4 mps 755 mmHg 79%
    06:00 +10°C° 0.1 mm 4 mps 755 mmHg 81%
    07:00 +11°C° 0 mm 4 mps 755 mmHg 80%
    08:00 +11°C° 0 mm 4 mps 755 mmHg 78%
    09:00 +12°C° 0 mm 3 mps 755 mmHg 77%
    10:00 +13°C° 0 mm 3 mps 755 mmHg 74%
    11:00 +13°C° 0 mm 3 mps 754 mmHg 71%
    12:00 +14°C° 0 mm 3 mps 754 mmHg 68%
    13:00 +14°C° 1.8 mm 4 mps 752 mmHg 76%
    14:00 +13°C° 1.8 mm 4 mps 751 mmHg 84%
    15:00 +13°C° 1.8 mm 5 mps 750 mmHg 91%
    16:00 +14°C° 3.5 mm 5 mps 749 mmHg 91%
    17:00 +15°C° 3.5 mm 6 mps 747 mmHg 91%
    18:00 +16°C° 3.5 mm 7 mps 746 mmHg 90%
    19:00 +16°C° 1.1 mm 7 mps 745 mmHg 90%
    20:00 +16°C° 1.1 mm 8 mps 744 mmHg 90%
    21:00 +16°C° 1.1 mm 8 mps 742 mmHg 90%
    22:00 +16°C° 0.9 mm 8 mps 742 mmHg 87%
    23:00 +15°C° 0.9 mm 9 mps 741 mmHg 85%

    Day after tomorrow, 21 September, Friday

    Time Temperature Precipitation Wind Pressure Humidity
    00:00 +14°C° 0.9 mm 10 mps 740 mmHg 82%
    01:00 +12°C° 0.1 mm 11 mps 741 mmHg 80%
    02:00 +9°C° 0.1 mm 11 mps 742 mmHg 79%
    03:00 +7°C° 0.1 mm 12 mps 743 mmHg 77%
    04:00 +7°C° 0 mm 11 mps 744 mmHg 76%
    05:00 +7°C° 0 mm 11 mps 745 mmHg 74%
    06:00 +7°C° 0 mm 10 mps 747 mmHg 73%
    07:00 +7°C° 0 mm 10 mps 747 mmHg 71%
    08:00 +8°C° 0 mm 10 mps 748 mmHg 68%
    09:00 +9°C° 0 mm 10 mps 748 mmHg 66%
    10:00 +9°C° 0.3 mm 10 mps 749 mmHg 68%
    11:00 +9°C° 0.3 mm 11 mps 749 mmHg 71%
    12:00 +9°C° 0.3 mm 11 mps 750 mmHg 73%
    13:00 +11°C° 0.4 mm 11 mps 751 mmHg 73%
    14:00 +11°C° 0.4 mm 10 mps 751 mmHg 72%
    15:00 +11°C° 0.4 mm 10 mps 752 mmHg 71%
    16:00 +11°C° 0.1 mm 9 mps 753 mmHg 72%
    17:00 +10°C° 0.1 mm 8 mps 754 mmHg 73%
    18:00 +9°C° 0.1 mm 6 mps 755 mmHg 74%
    19:00 +9°C° 0 mm 6 mps 756 mmHg 75%
    20:00 +8°C° 0 mm 5 mps 756 mmHg 77%
    21:00 +8°C° 0 mm 5 mps 757 mmHg 78%
    22:00 +8°C° 0 mm 5 mps 758 mmHg 78%
    23:00 +7°C° 0 mm 5 mps 758 mmHg 78%

    22 September, Saturday

    Time Temperature Precipitation Wind Pressure Humidity
    00:00 +7°C° 0 mm 5 mps 758 mmHg 78%
    01:00 +7°C° 0 mm 5 mps 759 mmHg 78%
    02:00 +7°C° 0 mm 5 mps 759 mmHg 78%
    03:00 +7°C° 0 mm 5 mps 759 mmHg 78%
    04:00 +7°C° 0 mm 5 mps 760 mmHg 79%
    05:00 +7°C° 0 mm 5 mps 760 mmHg 81%
    06:00 +7°C° 0 mm 5 mps 760 mmHg 82%
    07:00 +8°C° 0 mm 5 mps 761 mmHg 78%
    08:00 +9°C° 0 mm 5 mps 761 mmHg 74%
    09:00 +10°C° 0 mm 6 mps 762 mmHg 70%
    10:00 +12°C° 0 mm 5 mps 762 mmHg 67%
    11:00 +13°C° 0 mm 5 mps 762 mmHg 63%
    12:00 +14°C° 0 mm 5 mps 762 mmHg 59%
    13:00 +14°C° 0.1 mm 5 mps 762 mmHg 60%
    14:00 +14°C° 0.1 mm 5 mps 762 mmHg 60%
    15:00 +14°C° 0.1 mm 5 mps 762 mmHg 60%
    16:00 +12°C° 0 mm 4 mps 762 mmHg 65%
    17:00 +11°C° 0 mm 3 mps 761 mmHg 71%
    18:00 +10°C° 0 mm 2 mps 761 mmHg 76%
    19:00 +10°C° 0 mm 2 mps 761 mmHg 77%
    20:00 +10°C° 0 mm 1 mps 761 mmHg 79%
    21:00 +10°C° 0 mm 1 mps 760 mmHg 81%
    22:00 +10°C° 0.1 mm 1 mps 760 mmHg 81%
    23:00 +10°C° 0.1 mm 1 mps 759 mmHg 81%

    23 September, Sunday

    Time Temperature Precipitation Wind Pressure Humidity
    00:00 +9°C° 0.1 mm 2 mps 758 mmHg 81%
    01:00 +9°C° 1.4 mm 3 mps 757 mmHg 84%
    02:00 +7°C° 1.4 mm 4 mps 755 mmHg 87%
    03:00 +7°C° 1.4 mm 5 mps 753 mmHg 90%
    04:00 +6°C° 3.6 mm 7 mps 751 mmHg 90%
    05:00 +6°C° 3.6 mm 8 mps 750 mmHg 90%
    06:00 +5°C° 3.6 mm 10 mps 748 mmHg 90%
    07:00 +6°C° 3 mm 11 mps 746 mmHg 90%
    08:00 +7°C° 3 mm 12 mps 745 mmHg 89%
    09:00 +7°C° 3 mm 13 mps 743 mmHg 89%
    10:00 +7°C° 3.3 mm 13 mps 743 mmHg 88%
    11:00 +6°C° 3.3 mm 14 mps 743 mmHg 87%
    12:00 +8°C° 3.3 mm 15 mps 743 mmHg 87%
    13:00 +6°C° 3 mm 15 mps 744 mmHg 86%
    14:00 +6°C° 3 mm 15 mps 745 mmHg 85%
    15:00 +6°C° 3 mm 15 mps 747 mmHg 84%
    16:00 +6°C° 0.8 mm 14 mps 749 mmHg 81%
    17:00 +7°C° 0.8 mm 13 mps 751 mmHg 78%
    18:00 +7°C° 0.8 mm 12 mps 753 mmHg 75%
    19:00 +7°C° 0 mm 12 mps 755 mmHg 75%
    20:00 +7°C° 0 mm 11 mps 757 mmHg 75%
    21:00 +6°C° 0 mm 10 mps 758 mmHg 75%
    22:00 +6°C° 0 mm 10 mps 759 mmHg 75%
    23:00 +5°C° 0 mm 10 mps 760 mmHg 75%

    24 September, Monday

    Time Temperature Precipitation Wind Pressure Humidity
    00:00 +5°C° 0 mm 10 mps 762 mmHg 75%
    01:00 +5°C° 0 mm 9 mps 762 mmHg 75%
    02:00 +3°C° 0 mm 9 mps 763 mmHg 74%
    03:00 +3°C° 0 mm 9 mps 764 mmHg 74%
    04:00 +2°C° 0 mm 8 mps 765 mmHg 74%
    05:00 +2°C° 0 mm 8 mps 766 mmHg 73%
    06:00 +3°C° 0 mm 7 mps 767 mmHg 73%
    07:00 +4°C° 0 mm 7 mps 768 mmHg 70%
    08:00 +5°C° 0 mm 8 mps 768 mmHg 67%
    09:00 +6°C° 0 mm 8 mps 769 mmHg 64%
    10:00 +8°C° 0 mm 7 mps 769 mmHg 61%
    11:00 +9°C° 0 mm 7 mps 770 mmHg 59%
    12:00 +11°C° 0 mm 7 mps 770 mmHg 57%
    13:00 +11°C° 0 mm 7 mps 770 mmHg 57%
    14:00 +11°C° 0 mm 7 mps 771 mmHg 57%
    15:00 +11°C° 0 mm 6 mps 771 mmHg 57%
    16:00 +10°C° 0 mm 6 mps 771 mmHg 62%
    17:00 +10°C° 0 mm 5 mps 772 mmHg 67%
    18:00 +10°C° 0 mm 4 mps 772 mmHg 72%
    19:00 +8°C° 0 mm 4 mps 772 mmHg 74%
    20:00 +7°C° 0 mm 4 mps 773 mmHg 77%
    21:00 +7°C° 0 mm 3 mps 773 mmHg 80%
    22:00 +7°C° 0 mm 3 mps 773 mmHg 81%
    23:00 +7°C° 0 mm 3 mps 773 mmHg 83%
    Show more